Regional Weather Roundup
Issued by NWS

Home | Current Version | Previous Version | Graphics & Text | Print | Product List | Glossary On
Versions: 1 2 3 4 5 6 7 8 9 10 11 12 13 14 15 16 17 18 19 20 21 22 23 24 25 26 27 28 29 30 31 32 33 34 35 36 37 38 39 40 41 42 43 44 45 46 47 48 49 50
000
ASUS45 KBOI 290310
RWRID
WEATHER ROUNDUP FOR IDAHO
NATIONAL WEATHER SERVICE BOISE ID
900 PM MDT THU AUG 28 2014

NOTE: "FAIR" INDICATES FEW OR NO CLOUDS BELOW 12000 FEET
WITH NO SIGNIFICANT WEATHER AND/OR OBSTRUCTIONS TO VISIBILITY

IDZ012-014-290400-
SOUTHWEST IDAHO


CITY           SKY/WX    TMP DP  RH WIND       PRES   REMARKS
BOISE          CLEAR     82  40  22 CALM      29.93S
CALDWELL       CLEAR     79  46  31 S5        29.93R
MOUNTAIN HOME  CLEAR     81  41  24 NW3       29.95S
$$

IDZ016-017-290400-
SOUTHCENTRAL IDAHO


CITY           SKY/WX    TMP DP  RH WIND       PRES   REMARKS
BURLEY         CLEAR     69  52  54 CALM      30.03R
JEROME         CLEAR     70  50  49 NW6       30.04R
TWIN FALLS     PTCLDY    74  48  39 W7        30.05R
$$

IDZ019>023-290400-
SOUTHEAST IDAHO


CITY           SKY/WX    TMP DP  RH WIND       PRES   REMARKS
IDAHO FALLS    PTCLDY    74  44  34 S9        30.06R
POCATELLO      CLEAR     67  43  41 S8        30.06S
REXBURG        PTCLDY    71  43  36 S7        30.06R
$$

IDZ006-010-011-018-031-032-290400-
CENTRAL IDAHO MOUNTAINS


CITY           SKY/WX    TMP DP  RH WIND       PRES   REMARKS
MCCALL         PTCLDY    69  39  33 E3        30.07S
HAILEY         PTCLDY    68  45  42 SW7       30.12R SMOKE
STANLEY          N/A     59  37  44 S5        30.20S
SALMON         CLEAR     72  43  35 CALM      29.97R
CHALLIS        CLEAR     77  34  21 W13       30.06R
$$

IDZ002-004-006-007-026-290400-
NORTHERN IDAHO


CITY           SKY/WX    TMP DP  RH WIND       PRES   REMARKS
LEWISTON       PTCLDY    80  40  23 NW9       29.92R
LOWELL           N/A     69  57  65 CALM      29.95R
COEUR D`ALENE  CLEAR     72  41  33 S5        29.94S
MULLAN PASS    MOCLDY    56  35  45 VRB7      30.14S
$$



USA.gov is the U.S. government's official web portal to all federal, state and local government web resources and services.